Weather Roundup
Issued by NWS

Home | Current Version | Previous Version | Graphics & Text | Print | Product List | Glossary On
Versions: 1 2 3 4 5 6 7 8 9 10 11 12 13 14 15 16 17 18 19 20 21 22 23 24 25 26 27 28 29 30 31 32 33 34 35 36 37 38 39 40 41 42 43 44 45 46 47 48 49 50
000
NZUS93 KARX 230510
HRRWXR

CURRENT HOURLY OBSERVATIONS ACROSS
MUCH OF THE UPPER MISSISSIPPI VALLEY
NATIONAL WEATHER SERVICE LA CROSSE WI
1200 AM CDT SAT AUG 23 2014


...SOUTHEAST MINNESOTA...


CITY           SKY/WX    TMP DP  RH WIND       PRES   REMARKS
ROCHESTER      MOCLDY    70  67  90 NE10      30.02F
ROCHESTER/MAYO FAIR      70  68  92 N3        30.02F
WINONA         PTCLDY    73  70  88 NW3       29.99S
AUSTIN         CLOUDY    70  68  94 NE7       30.00S FOG
ALBERT LEA     CLOUDY    72  70  94 NE10      30.00S FOG
DODGE CENTER   MOCLDY    68  66  94 NE5       30.02F FOG
PRESTON        MOCLDY    69  69 100 N7        30.01F
OWATONNA       MOCLDY    70  66  88 NE5       30.01F
FARIBAULT      PTCLDY    72  64  78 CALM      30.02S
$$

...ELSEWHERE IN MINNESOTA...


CITY           SKY/WX    TMP DP  RH WIND       PRES   REMARKS
MINNEAPOLIS    PTCLDY    71  68  90 N5        30.01S
INTNL FALLS    CLEAR     61  61 100 CALM      30.07R
DULUTH         CLOUDY    63  60  90 E3        30.07S FOG
RED WING       PTCLDY    70  68  94 CALM      30.00S
REDWOOD FALLS  MOCLDY    73  70  90 NE5       29.99F
MANKATO        PTCLDY    72  64  78 E8        30.00F
WORTHINGTON      N/A     70  70 100 E5        30.02R
FAIRMONT       CLOUDY    64  64 100 NE7       29.99F
$$

...SOUTHWEST WISCONSIN...


CITY           SKY/WX    TMP DP  RH WIND       PRES   REMARKS
LA CROSSE      PTCLDY    74  71  91 N8        29.97S
PRAIRIE DU CHI CLOUDY    78  75  91 CALM      29.95S
BOSCOBEL       CLOUDY    77  75  93 CALM      29.95S FOG
LONE ROCK      MOCLDY    78  73  84 E3        29.96S
PLATTEVILLE    MOCLDY    77  75  95 SE6       29.98S
FORT MC COY      N/A     69  68  96 CALM      29.99S
CAMP DOUGLAS   FOG       70  70 100 W3        29.98S VSB 1/4
VIROQUA        CLOUDY    73  73 100 NE3       29.99F
WIS DELLS      PTCLDY    74  72  91 CALM      29.97F
$$

...ELSEWHERE IN WISCONSIN...


CITY           SKY/WX    TMP DP  RH WIND       PRES   REMARKS
MILWAUKEE      FOG       70  68  93 NE5       30.00S VSB 1/8
MADISON        FAIR      77  73  87 SE5       29.98R
GREEN BAY      CLOUDY    71  69  93 E6        30.01S FOG
EAU CLAIRE     PTCLDY    70  69  97 CALM      30.00S
BLACK RVR FLS  FAIR      67  67 100 CALM      29.98S FOG
MEDFORD        CLOUDY    69  69  99 NE3       30.03S FOG
WAUSAU         CLOUDY    73  71  93 E5        30.00S FOG
WIS RAPIDS     CLOUDY    74  72  93 E6        30.00S
MARSHFIELD     CLOUDY    74  72  93 NE5       30.00S FOG
RICE LAKE      MOCLDY    68  65  92 N3        30.04F
$$

...NORTHEAST IOWA...


CITY           SKY/WX    TMP DP  RH WIND       PRES   REMARKS
WATERLOO       CLOUDY    75  71  87 NW3       29.94F
DUBUQUE        CLOUDY    75  74  96 SW5       29.97S
DECORAH        CLOUDY    75  72  88 N3        29.98S
MASON CITY     CLOUDY    73  71  93 NE7       30.01R
CHARLES CITY   CLOUDY    73  72  94 NE7       29.99R
OELWEIN        CLOUDY    73  70  88 NE5       29.96F
$$

...ELSEWHERE IN IOWA...


CITY           SKY/WX    TMP DP  RH WIND       PRES   REMARKS
DES MOINES     CLOUDY    78  74  87 CALM      29.93R
IOWA CITY      MOCLDY    77  76  96 CALM      29.95S
FORT DODGE     CLOUDY    72  70  94 CALM      29.98F
MARSHALLTOWN   TSTM      75  72  90 E14       29.95S
CEDAR RAPIDS   MOCLDY    75  74  96 E3        29.93F
$$

...NORTHERN ILLINOIS...


CITY           SKY/WX    TMP DP  RH WIND       PRES   REMARKS
CHICAGO-OHARE  PTCLDY    77  70  79 CALM      29.98F
DUPAGE         CLEAR     75  73  93 SE5       29.98F
CHICAGO-MIDWAY PTCLDY    79  74  84 CALM      29.98F
MOLINE         CLEAR     74  72  93 CALM      29.94F
ROCKFORD       CLOUDY    75  72  90 S5        29.98F
STERLING       MOCLDY    73  72  94 CALM      29.97R
PEORIA         CLEAR     79  74  84 E3        29.97F
$$

NOTE: "FAIR" INDICATES FEW OR NO CLOUDS BELOW 12,000 FEET WITH NO
SIGNIFICANT WEATHER AND/OR OBSTRUCTIONS TO VISIBILITY. WIND
SPEEDS ARE IN MILES-PER-HOUR.



USA.gov is the U.S. government's official web portal to all federal, state and local government web resources and services.